ASA67 PAJN-PANC

Flight info

Callsign ASA67
Flight time 1h 33m
Altitude 38000
Route CHLKT2 ALATY JOH PTERS3
Aircraft B737/M-SDE2E3FGHIRWXY/LB1

Departure

Time 2026-05-06 23:33
Airport Juneau International Airport (PAJN)

Arrival

Time 2026-05-07 01:07
Airport Ted Stevens Anchorage International Airport (PANC)
Time Latitude Longitude Altitude Speed Heading
2026-05-06 23:19 58.35837 -134.58371 34 ft 0 kts 41°
2026-05-06 23:26 58.35839 -134.58372 31 ft 0 kts 19°
2026-05-06 23:28 58.35827 -134.58380 33 ft 4 kts 19°
2026-05-06 23:28 58.35803 -134.58398 34 ft 4 kts 38°
2026-05-06 23:28 58.35789 -134.58435 34 ft 4 kts 89°
2026-05-06 23:29 58.35790 -134.58458 34 ft 0 kts 105°
2026-05-06 23:30 58.35787 -134.58440 34 ft 4 kts 105°
2026-05-06 23:31 58.35776 -134.58355 33 ft 9 kts 107°
2026-05-06 23:31 58.35721 -134.58318 32 ft 10 kts 212°
2026-05-06 23:31 58.35722 -134.58455 33 ft 12 kts 283°
2026-05-06 23:31 58.35747 -134.58628 34 ft 15 kts 285°
2026-05-06 23:32 58.35766 -134.58762 34 ft 17 kts 285°
2026-05-06 23:32 58.35798 -134.58997 34 ft 20 kts 284°
2026-05-06 23:32 58.35835 -134.59261 34 ft 21 kts 285°
2026-05-06 23:32 58.35872 -134.59518 34 ft 20 kts 285°
2026-05-06 23:33 58.35801 -134.59673 34 ft 13 kts 173°
2026-05-06 23:33 58.35738 -134.59353 36 ft 62 kts 104°
2026-05-06 23:33 58.35547 -134.58016 46 ft 141 kts 106°
2026-05-06 23:33 58.35259 -134.56083 763 ft 162 kts 107°
2026-05-06 23:34 58.34869 -134.53888 1524 ft 185 kts 116°
2026-05-06 23:34 58.34405 -134.51541 2475 ft 197 kts 120°
2026-05-06 23:34 58.33510 -134.49441 3052 ft 214 kts 144°
2026-05-06 23:34 58.32268 -134.47597 3582 ft 243 kts 143°
2026-05-06 23:35 58.30985 -134.45438 4499 ft 253 kts 140°
2026-05-06 23:35 58.29696 -134.43093 5561 ft 260 kts 137°
2026-05-06 23:35 58.28456 -134.40518 6592 ft 266 kts 135°
2026-05-06 23:35 58.27202 -134.37861 7538 ft 274 kts 136°
2026-05-06 23:36 58.25907 -134.35133 8423 ft 282 kts 137°
2026-05-06 23:36 58.24584 -134.32372 9321 ft 290 kts 139°
2026-05-06 23:36 58.22995 -134.30062 10211 ft 287 kts 161°
2026-05-06 23:36 58.21057 -134.28966 10724 ft 297 kts 178°
2026-05-06 23:37 58.19001 -134.29066 11489 ft 295 kts 197°
2026-05-06 23:37 58.17100 -134.30375 12470 ft 288 kts 214°
2026-05-06 23:37 58.15540 -134.32695 13492 ft 284 kts 231°
2026-05-06 23:37 58.14442 -134.35780 14454 ft 284 kts 246°
2026-05-06 23:38 58.13892 -134.39377 15268 ft 289 kts 261°
2026-05-06 23:38 58.13960 -134.43208 16163 ft 297 kts 277°
2026-05-06 23:38 58.14612 -134.46984 16954 ft 308 kts 286°
2026-05-06 23:38 58.15454 -134.50870 17281 ft 329 kts 287°
2026-05-06 23:39 58.16325 -134.54890 17962 ft 337 kts 286°
2026-05-06 23:39 58.17206 -134.59018 18750 ft 340 kts 286°
2026-05-06 23:39 58.18096 -134.63193 19517 ft 343 kts 288°
2026-05-06 23:39 58.19380 -134.67105 20279 ft 358 kts 304°
2026-05-06 23:40 58.21154 -134.70511 21049 ft 365 kts 308°
2026-05-06 23:40 58.23012 -134.73817 21820 ft 369 kts 309°
2026-05-06 23:40 58.24906 -134.77145 22467 ft 372 kts 309°
2026-05-06 23:40 58.26807 -134.80518 23058 ft 375 kts 308°
2026-05-06 23:41 58.28718 -134.83932 23737 ft 378 kts 308°
2026-05-06 23:41 58.30641 -134.87383 24335 ft 380 kts 308°
2026-05-06 23:41 58.32565 -134.90857 24905 ft 383 kts 308°
2026-05-06 23:41 58.34502 -134.94374 25511 ft 385 kts 308°
2026-05-06 23:42 58.36439 -134.97900 26095 ft 386 kts 308°
2026-05-06 23:42 58.38386 -135.01451 26669 ft 389 kts 308°
2026-05-06 23:42 58.40345 -135.05029 27195 ft 391 kts 308°
2026-05-06 23:42 58.42316 -135.08638 27728 ft 394 kts 308°
2026-05-06 23:43 58.44128 -135.12497 28229 ft 387 kts 298°
2026-05-06 23:43 58.45631 -135.16766 28726 ft 387 kts 295°
2026-05-06 23:43 58.47038 -135.21079 29243 ft 388 kts 294°
2026-05-06 23:43 58.48446 -135.25478 29790 ft 389 kts 294°
2026-05-06 23:44 58.49890 -135.29970 30179 ft 393 kts 294°
2026-05-06 23:44 58.51318 -135.34369 30548 ft 396 kts 294°
2026-05-06 23:44 58.52791 -135.38860 30833 ft 399 kts 295°
2026-05-06 23:44 58.54279 -135.43358 31279 ft 400 kts 295°
2026-05-06 23:45 58.55771 -135.47855 31686 ft 400 kts 295°
2026-05-06 23:45 58.57265 -135.52360 32112 ft 401 kts 296°
2026-05-06 23:45 58.58760 -135.56882 32544 ft 401 kts 296°
2026-05-06 23:45 58.60251 -135.61396 32903 ft 401 kts 296°
2026-05-06 23:46 58.61743 -135.65934 33288 ft 404 kts 296°
2026-05-06 23:46 58.63251 -135.70534 33506 ft 409 kts 296°
2026-05-06 23:46 58.64766 -135.75156 33908 ft 408 kts 296°
2026-05-06 23:46 58.66278 -135.79774 34312 ft 408 kts 296°
2026-05-06 23:47 58.67786 -135.84390 34559 ft 409 kts 296°
2026-05-06 23:47 58.69303 -135.89047 34777 ft 412 kts 296°
2026-05-06 23:47 58.70821 -135.93716 35057 ft 412 kts 296°
2026-05-06 23:47 58.72336 -135.98384 35360 ft 412 kts 296°
2026-05-06 23:48 58.73858 -136.03082 35609 ft 413 kts 296°
2026-05-06 23:48 58.75374 -136.07774 35843 ft 414 kts 296°
2026-05-06 23:48 58.76878 -136.12429 36082 ft 414 kts 296°
2026-05-06 23:48 58.78401 -136.17157 36352 ft 415 kts 296°
2026-05-06 23:49 58.79926 -136.21905 36541 ft 417 kts 296°
2026-05-06 23:49 58.81459 -136.26686 36752 ft 418 kts 296°
2026-05-06 23:49 58.82986 -136.31456 37041 ft 418 kts 296°
2026-05-06 23:49 58.84513 -136.36237 37295 ft 418 kts 296°
2026-05-06 23:50 58.86043 -136.41040 37499 ft 420 kts 296°
2026-05-06 23:50 58.89102 -136.50665 38001 ft 420 kts 296°
2026-05-06 23:50 58.90629 -136.55487 38190 ft 421 kts 296°
2026-05-06 23:51 58.93703 -136.65226 38174 ft 424 kts 296°
2026-05-06 23:51 58.96770 -136.74975 38201 ft 425 kts 297°
2026-05-06 23:52 58.99829 -136.84752 38179 ft 428 kts 296°
2026-05-06 23:52 59.02914 -136.94662 38184 ft 429 kts 296°
2026-05-06 23:53 59.06002 -137.04589 38171 ft 429 kts 296°
2026-05-06 23:53 59.09085 -137.14548 38179 ft 428 kts 296°
2026-05-06 23:54 59.12113 -137.24377 38181 ft 425 kts 296°
2026-05-06 23:54 59.15139 -137.34247 38197 ft 423 kts 296°
2026-05-06 23:55 59.18145 -137.44094 38185 ft 422 kts 296°
2026-05-06 23:55 59.21133 -137.53924 38208 ft 421 kts 296°
2026-05-06 23:56 59.24114 -137.63774 38185 ft 421 kts 296°
2026-05-06 23:56 59.27087 -137.73638 38228 ft 421 kts 296°
2026-05-06 23:57 59.30065 -137.83548 38213 ft 423 kts 296°
2026-05-06 23:57 59.33039 -137.93505 38220 ft 424 kts 296°
2026-05-06 23:58 59.36006 -138.03484 38227 ft 424 kts 296°
2026-05-06 23:58 59.38961 -138.13453 38224 ft 426 kts 296°
2026-05-06 23:59 59.41929 -138.23552 38223 ft 427 kts 294°
2026-05-06 23:59 59.43998 -138.34375 38228 ft 423 kts 284°
2026-05-07 00:00 59.45684 -138.45436 38218 ft 425 kts 283°
2026-05-07 00:00 59.47100 -138.54700 38212 ft 425 kts 284°
2026-05-07 00:01 59.49126 -138.67620 38213 ft 424 kts 284°
2026-05-07 00:01 59.50881 -138.78698 38209 ft 423 kts 284°
2026-05-07 00:02 59.52631 -138.89773 38202 ft 423 kts 284°
2026-05-07 00:02 59.54368 -139.00835 38206 ft 422 kts 284°
2026-05-07 00:03 59.56098 -139.11933 38183 ft 423 kts 284°
2026-05-07 00:03 59.57817 -139.23035 38181 ft 423 kts 284°
2026-05-07 00:04 59.59526 -139.34140 38189 ft 423 kts 284°
2026-05-07 00:04 59.61225 -139.45252 38194 ft 422 kts 283°
2026-05-07 00:05 59.62905 -139.56313 38188 ft 423 kts 283°
2026-05-07 00:05 59.64588 -139.67470 38198 ft 423 kts 283°
2026-05-07 00:06 59.66260 -139.78627 38183 ft 423 kts 283°
2026-05-07 00:06 59.67912 -139.89718 38174 ft 422 kts 283°
2026-05-07 00:07 59.69561 -140.00867 38177 ft 422 kts 283°
2026-05-07 00:07 59.71200 -140.12027 38172 ft 421 kts 283°
2026-05-07 00:08 59.72827 -140.23178 38174 ft 421 kts 283°
2026-05-07 00:08 59.74442 -140.34327 38179 ft 421 kts 283°
2026-05-07 00:09 59.76050 -140.45496 38173 ft 421 kts 283°
2026-05-07 00:09 59.77640 -140.56615 38173 ft 420 kts 283°
2026-05-07 00:10 59.79226 -140.67789 38171 ft 420 kts 283°
2026-05-07 00:10 59.80801 -140.78961 38166 ft 420 kts 283°
2026-05-07 00:11 59.82368 -140.90154 38163 ft 420 kts 282°
2026-05-07 00:11 59.83929 -141.01387 38179 ft 421 kts 282°
2026-05-07 00:12 59.85470 -141.12546 38158 ft 421 kts 282°
2026-05-07 00:12 59.87014 -141.23811 38171 ft 421 kts 282°
2026-05-07 00:13 59.88547 -141.35075 38153 ft 421 kts 282°
2026-05-07 00:13 59.90071 -141.46357 38148 ft 421 kts 282°
2026-05-07 00:14 59.91581 -141.57615 38155 ft 421 kts 282°
2026-05-07 00:14 59.93084 -141.68901 38151 ft 421 kts 282°
2026-05-07 00:15 59.94575 -141.80179 38154 ft 420 kts 282°
2026-05-07 00:15 59.96054 -141.91453 38143 ft 420 kts 282°
2026-05-07 00:16 59.97523 -142.02729 38147 ft 420 kts 282°
2026-05-07 00:16 59.98982 -142.14018 38134 ft 419 kts 282°
2026-05-07 00:17 60.00422 -142.25241 38130 ft 419 kts 282°
2026-05-07 00:17 60.01862 -142.36546 38140 ft 420 kts 282°
2026-05-07 00:18 60.03293 -142.47872 38133 ft 420 kts 282°
2026-05-07 00:18 60.04718 -142.59232 38134 ft 421 kts 281°
2026-05-07 00:19 60.05896 -142.68693 38122 ft 421 kts 281°
2026-05-07 00:19 60.07303 -142.80069 38126 ft 421 kts 281°
2026-05-07 00:20 60.08699 -142.91453 38124 ft 421 kts 281°
2026-05-07 00:20 60.10091 -143.02885 38125 ft 422 kts 281°
2026-05-07 00:21 60.11471 -143.14316 38116 ft 422 kts 281°
2026-05-07 00:21 60.12833 -143.25686 38121 ft 421 kts 281°
2026-05-07 00:22 60.14193 -143.37128 38113 ft 421 kts 281°
2026-05-07 00:22 60.15542 -143.48566 38119 ft 421 kts 281°
2026-05-07 00:23 60.16881 -143.60025 38104 ft 421 kts 281°
2026-05-07 00:23 60.18210 -143.71481 38106 ft 421 kts 281°
2026-05-07 00:24 60.19527 -143.82933 38105 ft 420 kts 281°
2026-05-07 00:24 60.20834 -143.94390 38105 ft 420 kts 281°
2026-05-07 00:25 60.22129 -144.05846 38106 ft 420 kts 280°
2026-05-07 00:25 60.23407 -144.17240 38100 ft 420 kts 280°
2026-05-07 00:26 60.24685 -144.28732 38107 ft 420 kts 280°
2026-05-07 00:26 60.25954 -144.40240 38113 ft 421 kts 280°
2026-05-07 00:27 60.27213 -144.51760 38101 ft 421 kts 280°
2026-05-07 00:27 60.28463 -144.63298 38093 ft 422 kts 280°
2026-05-07 00:28 60.29706 -144.74862 38090 ft 422 kts 280°
2026-05-07 00:28 60.30937 -144.86426 38103 ft 422 kts 280°
2026-05-07 00:29 60.32151 -144.97940 38081 ft 422 kts 280°
2026-05-07 00:30 60.34562 -145.21099 38083 ft 421 kts 279°
2026-05-07 00:30 60.35749 -145.32658 38077 ft 420 kts 279°
2026-05-07 00:31 60.36927 -145.44235 38080 ft 419 kts 279°
2026-05-07 00:31 60.38083 -145.55700 38079 ft 419 kts 279°
2026-05-07 00:32 60.39234 -145.67226 38078 ft 418 kts 279°
2026-05-07 00:32 60.40374 -145.78752 38082 ft 418 kts 279°
2026-05-07 00:33 60.41507 -145.90311 38075 ft 419 kts 279°
2026-05-07 00:33 60.42629 -146.01874 38080 ft 419 kts 279°
2026-05-07 00:34 60.43744 -146.13471 38087 ft 419 kts 279°
2026-05-07 00:34 60.44849 -146.25079 38085 ft 420 kts 279°
2026-05-07 00:35 60.45948 -146.36732 38090 ft 421 kts 279°
2026-05-07 00:35 60.47040 -146.48413 38077 ft 422 kts 279°
2026-05-07 00:36 60.48357 -146.59923 38068 ft 425 kts 292°
2026-05-07 00:36 60.49853 -146.65117 38104 ft 429 kts 303°
2026-05-07 00:36 60.51640 -146.69978 38077 ft 430 kts 304°
2026-05-07 00:37 60.55306 -146.79610 38077 ft 431 kts 304°
2026-05-07 00:37 60.57135 -146.84501 37592 ft 437 kts 304°
2026-05-07 00:37 60.58953 -146.89435 37055 ft 435 kts 303°
2026-05-07 00:38 60.60753 -146.94363 36490 ft 432 kts 303°
2026-05-07 00:38 60.62536 -146.99265 36068 ft 426 kts 303°
2026-05-07 00:38 60.64291 -147.04099 35601 ft 422 kts 303°
2026-05-07 00:38 60.66011 -147.08901 35226 ft 416 kts 302°
2026-05-07 00:39 60.67695 -147.13667 34786 ft 412 kts 302°
2026-05-07 00:39 60.69355 -147.18397 34344 ft 408 kts 302°
2026-05-07 00:39 60.70980 -147.23037 33868 ft 405 kts 302°
2026-05-07 00:39 60.72607 -147.27693 33365 ft 401 kts 302°
2026-05-07 00:40 60.74224 -147.32318 32921 ft 396 kts 302°
2026-05-07 00:40 60.75810 -147.36863 32477 ft 390 kts 302°
2026-05-07 00:40 60.77377 -147.41356 32064 ft 385 kts 301°
2026-05-07 00:40 60.78925 -147.45807 31639 ft 380 kts 301°
2026-05-07 00:41 60.80447 -147.50188 31228 ft 376 kts 301°
2026-05-07 00:41 60.81952 -147.54531 30824 ft 371 kts 301°
2026-05-07 00:41 60.83438 -147.58824 30416 ft 368 kts 301°
2026-05-07 00:41 60.84906 -147.63077 29984 ft 363 kts 301°
2026-05-07 00:42 60.86359 -147.67288 29548 ft 358 kts 301°
2026-05-07 00:42 60.87770 -147.71388 29111 ft 353 kts 301°
2026-05-07 00:42 60.89174 -147.75476 28701 ft 347 kts 301°
2026-05-07 00:42 60.90554 -147.79500 28284 ft 342 kts 301°
2026-05-07 00:43 60.91914 -147.83473 27886 ft 337 kts 301°
2026-05-07 00:43 60.93254 -147.87394 27483 ft 332 kts 301°
2026-05-07 00:43 60.94568 -147.91232 27098 ft 325 kts 301°
2026-05-07 00:43 60.95864 -147.95044 26676 ft 323 kts 301°
2026-05-07 00:44 60.97144 -147.98814 26299 ft 320 kts 301°
2026-05-07 00:44 60.98414 -148.02561 25887 ft 318 kts 301°
2026-05-07 00:44 60.99674 -148.06280 25501 ft 315 kts 301°
2026-05-07 00:44 61.00907 -148.09924 25112 ft 312 kts 301°
2026-05-07 00:45 61.02145 -148.13589 24727 ft 310 kts 301°
2026-05-07 00:45 61.03376 -148.17240 24351 ft 308 kts 301°
2026-05-07 00:45 61.04598 -148.20851 23975 ft 307 kts 301°
2026-05-07 00:45 61.05821 -148.24495 23594 ft 310 kts 301°
2026-05-07 00:46 61.07054 -148.28180 23115 ft 315 kts 301°
2026-05-07 00:46 61.08312 -148.31938 22701 ft 320 kts 301°
2026-05-07 00:46 61.09579 -148.35722 22248 ft 320 kts 302°
2026-05-07 00:46 61.10819 -148.39425 21893 ft 315 kts 302°
2026-05-07 00:47 61.12076 -148.43183 21472 ft 312 kts 302°
2026-05-07 00:47 61.13285 -148.46816 21076 ft 310 kts 301°
2026-05-07 00:47 61.14391 -148.50617 20617 ft 306 kts 291°
2026-05-07 00:47 61.15152 -148.54699 20207 ft 302 kts 287°
2026-05-07 00:48 61.15845 -148.58797 19837 ft 300 kts 287°
2026-05-07 00:48 61.16526 -148.62861 19450 ft 298 kts 287°
2026-05-07 00:48 61.17213 -148.66906 19053 ft 297 kts 287°
2026-05-07 00:48 61.17904 -148.70937 18672 ft 296 kts 287°
2026-05-07 00:49 61.18597 -148.74948 18277 ft 295 kts 287°
2026-05-07 00:49 61.19289 -148.78935 17827 ft 294 kts 287°
2026-05-07 00:49 61.19986 -148.82947 17410 ft 293 kts 287°
2026-05-07 00:49 61.20674 -148.86911 17019 ft 291 kts 287°
2026-05-07 00:50 61.21357 -148.90848 16635 ft 289 kts 287°
2026-05-07 00:50 61.22035 -148.94757 16258 ft 286 kts 287°
2026-05-07 00:50 61.22704 -148.98625 15884 ft 284 kts 287°
2026-05-07 00:50 61.23361 -149.02428 15506 ft 283 kts 287°
2026-05-07 00:51 61.24022 -149.06269 15141 ft 282 kts 287°
2026-05-07 00:51 61.24576 -149.10140 14813 ft 279 kts 278°
2026-05-07 00:51 61.24844 -149.14165 14507 ft 284 kts 275°
2026-05-07 00:51 61.25055 -149.18301 14215 ft 290 kts 274°
2026-05-07 00:52 61.25271 -149.22507 13918 ft 295 kts 275°
2026-05-07 00:52 61.25504 -149.26768 13541 ft 298 kts 275°
2026-05-07 00:52 61.25746 -149.30974 13199 ft 294 kts 275°
2026-05-07 00:52 61.25996 -149.35214 12857 ft 289 kts 275°
2026-05-07 00:53 61.26234 -149.39260 12543 ft 286 kts 275°
2026-05-07 00:53 61.26476 -149.43352 12264 ft 285 kts 275°
2026-05-07 00:53 61.26708 -149.47431 11940 ft 286 kts 275°
2026-05-07 00:53 61.26946 -149.51544 11621 ft 284 kts 275°
2026-05-07 00:54 61.27179 -149.55619 11329 ft 284 kts 275°
2026-05-07 00:54 61.27415 -149.59711 11017 ft 285 kts 275°
2026-05-07 00:54 61.27648 -149.63818 10697 ft 286 kts 275°
2026-05-07 00:54 61.27878 -149.67884 10372 ft 286 kts 275°
2026-05-07 00:55 61.28253 -149.71914 10048 ft 284 kts 291°
2026-05-07 00:55 61.29214 -149.75441 9891 ft 274 kts 300°
2026-05-07 00:55 61.30233 -149.78828 9450 ft 275 kts 300°
2026-05-07 00:55 61.31231 -149.82178 9124 ft 271 kts 299°
2026-05-07 00:56 61.32211 -149.85505 8811 ft 267 kts 299°
2026-05-07 00:56 61.33174 -149.88796 8529 ft 266 kts 299°
2026-05-07 00:56 61.34138 -149.92102 8239 ft 266 kts 299°
2026-05-07 00:56 61.35266 -149.95127 8004 ft 269 kts 321°
2026-05-07 00:57 61.36910 -149.96812 7977 ft 258 kts 341°
2026-05-07 00:57 61.38574 -149.97757 7971 ft 244 kts 343°
2026-05-07 00:57 61.40182 -149.98800 7761 ft 241 kts 340°
2026-05-07 00:57 61.41767 -149.99888 7538 ft 236 kts 340°
2026-05-07 00:58 61.43315 -150.00954 7188 ft 234 kts 340°
2026-05-07 00:58 61.44865 -150.02017 6760 ft 234 kts 340°
2026-05-07 00:58 61.46409 -150.03076 6299 ft 233 kts 340°
2026-05-07 00:58 61.47951 -150.04131 5782 ft 234 kts 340°
2026-05-07 00:59 61.50274 -150.08218 4938 ft 223 kts 283°
2026-05-07 00:59 61.50285 -150.11348 4558 ft 213 kts 249°
2026-05-07 00:59 61.49459 -150.13786 4290 ft 206 kts 216°
2026-05-07 01:00 61.48252 -150.15416 4047 ft 207 kts 210°
2026-05-07 01:00 61.46901 -150.16430 3743 ft 209 kts 179°
2026-05-07 01:00 61.45492 -150.15771 3529 ft 208 kts 166°
2026-05-07 01:00 61.44132 -150.15031 3255 ft 203 kts 167°
2026-05-07 01:01 61.42749 -150.14285 3058 ft 205 kts 167°
2026-05-07 01:01 61.41363 -150.13520 3024 ft 207 kts 166°
2026-05-07 01:01 61.39957 -150.12734 3001 ft 209 kts 166°
2026-05-07 01:01 61.38573 -150.11952 2987 ft 209 kts 166°
2026-05-07 01:02 61.37164 -150.11154 2991 ft 209 kts 166°
2026-05-07 01:02 61.35778 -150.10368 2989 ft 204 kts 166°
2026-05-07 01:02 61.34415 -150.09596 2983 ft 200 kts 166°
2026-05-07 01:02 61.33074 -150.08822 2993 ft 200 kts 165°
2026-05-07 01:03 61.31754 -150.08058 2800 ft 193 kts 166°
2026-05-07 01:03 61.30516 -150.07359 2550 ft 177 kts 166°
2026-05-07 01:03 61.29376 -150.06721 2309 ft 163 kts 166°
2026-05-07 01:03 61.28358 -150.06150 2088 ft 141 kts 166°
2026-05-07 01:04 61.27483 -150.05660 1876 ft 126 kts 166°
2026-05-07 01:04 61.26646 -150.05192 1710 ft 126 kts 167°
2026-05-07 01:04 61.25792 -150.04715 1521 ft 130 kts 167°
2026-05-07 01:04 61.24948 -150.04241 1334 ft 128 kts 166°
2026-05-07 01:05 61.24088 -150.03759 1136 ft 128 kts 167°
2026-05-07 01:05 61.23616 -150.03495 1032 ft 129 kts 167°
2026-05-07 01:05 61.22641 -150.02948 802 ft 131 kts 167°
2026-05-07 01:05 61.21762 -150.02452 631 ft 134 kts 167°
2026-05-07 01:06 61.20842 -150.01938 397 ft 137 kts 167°
2026-05-07 01:06 61.19921 -150.01425 164 ft 137 kts 169°
2026-05-07 01:06 61.19050 -150.00944 116 ft 115 kts 165°
2026-05-07 01:06 61.18395 -150.00575 118 ft 80 kts 165°
2026-05-07 01:07 61.17985 -150.00351 118 ft 41 kts 160°
2026-05-07 01:07 61.17835 -150.00110 108 ft 18 kts 135°
2026-05-07 01:07 61.17758 -149.99951 117 ft 16 kts 135°
2026-05-07 01:07 61.17678 -149.99808 118 ft 15 kts 126°
2026-05-07 01:08 61.17672 -149.99673 117 ft 14 kts 77°
2026-05-07 01:08 61.17696 -149.99493 119 ft 14 kts 73°
2026-05-07 01:08 61.17729 -149.99316 117 ft 13 kts 67°
2026-05-07 01:08 61.17712 -149.99150 119 ft 13 kts 150°
2026-05-07 01:09 61.17665 -149.99017 118 ft 13 kts 83°
2026-05-07 01:09 61.17681 -149.98918 119 ft 13 kts 70°
2026-05-07 01:10 61.17685 -149.98891 117 ft 13 kts 70°
2026-05-07 01:10 61.17656 -149.98737 115 ft 13 kts 154°
2026-05-07 01:10 61.17595 -149.98628 118 ft 12 kts 109°
2026-05-07 01:10 61.17577 -149.98515 118 ft 0 kts 104°
2026-05-07 01:11 61.17577 -149.98506 118 ft 2 kts 101°
2026-05-07 01:11 61.17574 -149.98480 118 ft 0 kts 104°